KSVHKTRI

Guest
Details From KSVH - Statesville Rgnl
To KTRI - Tri Cities Rgnl Tn Va
Flight Number -
Tags Generated
Created
Modified
Stats Distance 82 nm / 152 km
Max Altitude 0 ft / 0 m
Waypoints 2
Social Downloads 1
Likes 0
Share VATSIM

Download

Looking for another format? Having issues loading an existing format? Contact us
Advertisement - Login to hide

Notes

Generated

Route

KSVH KTRI

ID Type Via Altitude Latitude Longitude Leg Dist Tot Dist Heading (true) Name
O KSVH APT - 0 ft / 0 m 35.76614˚ -80.96562˚ - 0 nm - -
O KTRI APT - 0 ft / 0 m 36.47830˚ -82.41047˚ 82 nm 82 nm 302° / 301° Tri Cities Rgnl Tn Va

Altitude Profile

Advertisement - Login to hide

KSVH

Details ICAO KSVH (SVH)
Name Statesville Rgnl
Region United States
Timezone America/New_York (UTC-4.0)
Stats Elevation 965 ft / 294 m (AMSL)
Location 35.764996° -80.953896°
Runways 1
Magnetic Variation 7.799° W

METAR

KSVH 241635Z AUTO 09004KT 10SM OVC020 22/22 A3020 RMK AO2 T02240215

Decode

TAF

Not found

Departure Runways

ID Width Length Bearing (true) Bearing (mag) Surface Threshold Offset Overrun Length
10 98 ft / 30 m 6,993 ft / 2,131 m 96.86° 104.66° Asphalt 1,001 ft / 305 m 0 ft / 0 m
28 98 ft / 30 m 6,993 ft / 2,131 m 276.88° 284.68° Asphalt 551 ft / 168 m 0 ft / 0 m

KTRI

Details ICAO KTRI (TRI)
Name Tri Cities Rgnl Tn Va
Region United States
Timezone America/New_York (UTC-4.0)
Stats Elevation 1,519 ft / 463 m (AMSL)
Location 36.475920° -82.406414°
Runways 2
Magnetic Variation 6.942° W

METAR

KTRI 241553Z 00000KT 10SM FEW030 SCT250 26/18 A3017 RMK AO2 SLP192 T02610183

Decode

TAF

TAF KTRI 241120Z 2412/2512 VRB03KT P6SM FEW060 FM241800 10005KT P6SM SCT050 FM250100 00000KT P6SM SCT040 BKN150 FM250600 00000KT P6SM SCT040 BKN080

Decode

Destination Runways

ID Width Length Bearing (true) Bearing (mag) Surface Threshold Offset Overrun Length
05 151 ft / 46 m 8,002 ft / 2,439 m 42.44° 49.38° Asphalt 0 ft / 0 m 151 ft / 46 m
09 151 ft / 46 m 4,433 ft / 1,351 m 89.03° 95.97° Asphalt 0 ft / 0 m 0 ft / 0 m
23 151 ft / 46 m 8,002 ft / 2,439 m 222.45° 229.39° Asphalt 0 ft / 0 m 98 ft / 30 m
27 151 ft / 46 m 4,433 ft / 1,351 m 269.04° 275.98° Asphalt 0 ft / 0 m 0 ft / 0 m

Approach Navaids

Runway Type Ident Frequency Range Bearing (true) Bearing (mag) Slope Elevation
05 Localiser IBON 111.50 MHz 18 nm / 33 km 42.46° 49.40° - 1,525 ft / 465 m (AMSL)
05 Glidescope IBON 111.50 MHz 10 nm / 19 km 42.44° 49.38° 3.00° 1,519 ft / 463 m (AMSL)
23 Localiser ITRI 109.90 MHz 18 nm / 33 km 222.44° 229.38° - 1,519 ft / 463 m (AMSL)
23 Glidescope ITRI 109.90 MHz 10 nm / 19 km 222.44° 229.38° 3.00° 1,518 ft / 463 m (AMSL)